Weather in Lyuban

Russia / Saint-Petersburg and Leningrad Oblast     59˚21′04″N   31˚14′36″E
temp.,
°C
wind,
m/s
gust,
m/s
humid.,
%
clouds,
%
prec.,
mm/h
press.,
hPa
HPBL,
m
17 january, sun
sun1700:00−19˚n12942 0.0 101720
03:00−18˚nw129815 0.0 101720
06:00−16˚wnw229899 0.1 101739
09:00−16˚w229784 0.1 101726
12:00−12˚wsw259543 0.0 1017184
15:00−9˚wsw259467 0.1 1016268
18:00−10˚wsw269693 0.2 1016169
21:00−9˚wsw269693 0.4 1016170
18 january, mon
mon1800:00−8˚wsw2596100 0.4 1016179
03:00−9˚w249695 0.8 101686
06:00−8˚w229796 0.4 101540
09:00−9˚w129787 0.4 101621
12:00−7˚wsw119584 0.2 101683
15:00−7˚w119684 0.3 101621
18:00−9˚sw129772 0.0 101621
21:00−9˚sw229785 0.1 101628
19 january, tue
tue1900:00−10˚wsw229782 0.0 101624
03:00−11˚sw229786 0.1 101628
06:00−10˚sw249692 0.1 1015116
09:00−12˚sw239388 0.1 101650
12:00−11˚sw25919 0.0 1016185
15:00−10˚ssw25914 0.0 1015204
18:00−13˚ssw25960 0.0 101597
21:00−14˚ssw23972 0.0 101667
20 january, wed
wed2000:00−14˚ssw239774 0.0 101677
03:00−14˚ssw239544 0.0 101683
06:00−15˚s25970 0.0 1015105
09:00−15˚s37961 0.0 1015160
12:00−12˚s38890 0.0 1015285
15:00−11˚s49870 0.0 1013361
18:00−11˚s41190100 0.0 1012352
21:00−10˚sse41189100 0.0 1010395
21 january, thu
thu2100:00−9˚sse51293100 0.2 1008490
03:00−8˚s41094100 1.9 1005636
06:00−7˚s4995100 1.8 1003501
09:00−5˚s3896100 3.6 1002403
12:00−3˚s3796100 1.1 1002302
15:00s2698100 2.9 1001244
18:00+1˚s2599100 2.6 1001202
21:00+1˚sw3999100 5.6 1001298